Location: Владивосток
(43.1151°N, 131.8856°E)
Time: 04:47:07
(UTC+10:00)

METEOR M2 - Visible Passes

Search period start: 23 April 2024 00:00
Search period end: 03 May 2024 00:00
Orbit: 817 x 827 km, 98.4° (Epoch: 22 April)

Date Brightness Start Highest point End Pass type
(mag) Time Alt. Az. Time Alt. Az. Time Alt. Az.
25 Apr ? 05:42:28 10° NE 05:46:23 20° E 05:50:17 10° SE visible
26 Apr ? 05:23:28 10° ENE 05:25:58 13° E 05:28:27 10° ESE visible
01 May ? 05:22:47 10° ENE 05:25:16 13° E 05:27:45 10° ESE visible
